| time (UTC) | temp C | wind direction | speed KPH | gust KPH | rain 1hr cm | rain 24hr cm | rain mn cm | humidity % | barometer mb |
| 20260904160154 | 30 | 349 | 0.0 | 0.0 | 0.00 | 0.03 | 0.03 | 74 | 1012.0 |
| 20260904155649 | 30 | 19 | 1.6 | 1.6 | 0.00 | 0.03 | 0.03 | 71 | 1011.7 |
| 20260904155148 | 30 | 25 | 0.0 | 1.6 | 0.00 | 0.03 | 0.03 | 69 | 1012.0 |
| 20260904154648 | 29 | 344 | 0.0 | 0.0 | 0.00 | 0.03 | 0.03 | 73 | 1011.8 |
| 20260904154147 | 29 | 10 | 1.6 | 1.6 | 0.00 | 0.03 | 0.03 | 71 | 1011.9 |
| 20260904153643 | 28 | 7 | 3.2 | 3.2 | 0.00 | 0.03 | 0.03 | 78 | 1012.0 |
| 20260904153138 | 29 | 27 | 3.2 | 3.2 | 0.00 | 0.03 | 0.03 | 72 | 1011.9 |
| 20260904152635 | 29 | 317 | 3.2 | 4.8 | 0.00 | 0.03 | 0.03 | 74 | 1012.0 |
| 20260904152130 | 29 | 345 | 0.0 | 1.6 | 0.00 | 0.03 | 0.03 | 72 | 1012.0 |
| 20260904151625 | 28 | 0 | 1.6 | 3.2 | 0.00 | 0.03 | 0.03 | 73 | 1011.7 |
| 20260904151123 | 28 | 345 | 3.2 | 3.2 | 0.00 | 0.03 | 0.03 | 73 | 1011.8 |
| 20260904150619 | 28 | 1 | 1.6 | 3.2 | 0.00 | 0.03 | 0.03 | 76 | 1011.9 |
| 20260904150114 | 28 | 356 | 4.8 | 4.8 | 0.00 | 0.03 | 0.03 | 74 | 1012.1 |
| 20260904145613 | 27 | 236 | 3.2 | 4.8 | 0.00 | 0.03 | 0.03 | 77 | 1011.9 |
| 20260904145108 | 27 | 12 | 0.0 | 0.0 | 0.00 | 0.03 | 0.03 | 83 | 1011.9 |
| 20260904144604 | 28 | 354 | 0.0 | 0.0 | 0.00 | 0.03 | 0.03 | 76 | 1011.9 |
| 20260904144059 | 28 | 346 | 0.0 | 1.6 | 0.00 | 0.03 | 0.03 | 78 | 1011.9 |
| 20260904143555 | 27 | 343 | 3.2 | 4.8 | 0.00 | 0.03 | 0.03 | 75 | 1012.1 |
| 20260904143052 | 27 | 19 | 0.0 | 0.0 | 0.00 | 0.03 | 0.03 | 74 | 1012.1 |
| 20260904142548 | 27 | 27 | 0.0 | 1.6 | 0.00 | 0.03 | 0.03 | 85 | 1012.1 |
| 20260904142043 | 27 | 25 | 0.0 | 1.6 | 0.00 | 0.03 | 0.03 | 81 | 1012.2 |
| 20260904141538 | 27 | 11 | 0.0 | 0.0 | 0.00 | 0.03 | 0.03 | 82 | 1012.2 |
| 20260904141034 | 27 | 26 | 0.0 | 0.0 | 0.00 | 0.03 | 0.03 | 84 | 1012.1 |
| 20260904140534 | 27 | 66 | 1.6 | 3.2 | 0.00 | 0.03 | 0.03 | 82 | 1012.2 |
| 20260904140028 | 26 | 31 | 1.6 | 1.6 | 0.00 | 0.03 | 0.03 | 80 | 1012.4 |
| 20260904135527 | 26 | 28 | 0.0 | 1.6 | 0.00 | 0.03 | 0.03 | 85 | 1012.1 |
| 20260904135024 | 26 | 26 | 0.0 | 0.0 | 0.00 | 0.03 | 0.03 | 84 | 1012.2 |
| 20260904134519 | 25 | 51 | 3.2 | 3.2 | 0.00 | 0.03 | 0.03 | 86 | 1012.3 |
| 20260904134013 | 26 | 33 | 0.0 | 1.6 | 0.00 | 0.03 | 0.03 | 84 | 1012.2 |
| 20260904133507 | 25 | 35 | 0.0 | 0.0 | 0.00 | 0.03 | 0.03 | 88 | 1012.2 |
| 20260904133004 | 26 | 35 | 0.0 | 0.0 | 0.00 | 0.03 | 0.03 | 84 | 1012.1 |
| 20260904132458 | 25 | 36 | 0.0 | 0.0 | 0.00 | 0.03 | 0.03 | 84 | 1012.2 |
| 20260904131958 | 25 | 18 | 1.6 | 1.6 | 0.00 | 0.03 | 0.03 | 84 | 1012.2 |
| 20260904131453 | 24 | 12 | 1.6 | 1.6 | 0.00 | 0.03 | 0.03 | 85 | 1012.1 |
| 20260904130949 | 23 | 313 | 6.4 | 6.4 | 0.00 | 0.03 | 0.03 | 86 | 1012.4 |
| 20260904130448 | 23 | 332 | 1.6 | 1.6 | 0.00 | 0.03 | 0.03 | 91 | 1012.2 |
| 20260904125942 | 23 | 22 | 0.0 | 0.0 | 0.00 | 0.03 | 0.03 | 91 | 1012.2 |
| 20260904125439 | 23 | 17 | 0.0 | 0.0 | 0.00 | 0.03 | 0.03 | 89 | 1012.4 |
| 20260904124938 | 22 | 343 | 0.0 | 0.0 | 0.00 | 0.03 | 0.03 | 90 | 1012.2 |
| 20260904124434 | 22 | 350 | 0.0 | 1.6 | 0.00 | 0.03 | 0.03 | 92 | 1012.2 |
| 20260904123930 | 22 | 330 | 3.2 | 3.2 | 0.00 | 0.03 | 0.03 | 92 | 1012.3 |
| 20260904123430 | 21 | 5 | 0.0 | 0.0 | 0.00 | 0.03 | 0.03 | 96 | 1012.4 |
| 20260904122925 | 21 | 4 | 0.0 | 0.0 | 0.00 | 0.03 | 0.03 | 95 | 1012.1 |
| 20260904122425 | 21 | 6 | 0.0 | 0.0 | 0.00 | 0.03 | 0.03 | 97 | 1012.2 |
| 20260904121919 | 21 | 7 | 0.0 | 0.0 | 0.00 | 0.03 | 0.03 | 98 | 1012.3 |
| 20260904121416 | 21 | 339 | 1.6 | 1.6 | 0.00 | 0.03 | 0.03 | 99 | 1012.1 |
| 20260904120907 | 21 | 354 | 0.0 | 0.0 | 0.00 | 0.03 | 0.03 | 99 | 1012.4 |
| 20260904120403 | 21 | 343 | 0.0 | 0.0 | 0.00 | 0.03 | 0.03 | 99 | 1012.2 |
| 20260904115858 | 21 | 356 | 0.0 | 0.0 | 0.00 | 0.03 | 0.03 | 98 | 1012.1 |
| 20260904115352 | 21 | 355 | 0.0 | 0.0 | 0.00 | 0.03 | 0.03 | 98 | 1012.2 |
| 20260904114847 | 21 | 355 | 0.0 | 0.0 | 0.00 | 0.03 | 0.03 | 97 | 1011.8 |
| 20260904114341 | 21 | 353 | 0.0 | 1.6 | 0.00 | 0.03 | 0.03 | 98 | 1012.0 |
| 20260904113836 | 21 | 325 | 0.0 | 0.0 | 0.00 | 0.03 | 0.03 | 99 | 1011.8 |
| 20260904113336 | 21 | 324 | 0.0 | 0.0 | 0.00 | 0.03 | 0.03 | 98 | 1011.8 |
| 20260904112825 | 21 | 322 | 1.6 | 1.6 | 0.00 | 0.03 | 0.03 | 97 | 1011.5 |
| 20260904112321 | 21 | 304 | 0.0 | 0.0 | 0.00 | 0.03 | 0.03 | 97 | 1011.7 |
| 20260904111817 | 21 | 47 | 1.6 | 3.2 | 0.00 | 0.03 | 0.03 | 96 | 1011.5 |
| 20260904111312 | 21 | 340 | 1.6 | 1.6 | 0.00 | 0.03 | 0.03 | 99 | 1011.7 |
| 20260904110808 | 21 | 328 | 1.6 | 1.6 | 0.00 | 0.03 | 0.03 | 97 | 1011.8 |
| 20260904110307 | 21 | 351 | 0.0 | 0.0 | 0.00 | 0.03 | 0.03 | 99 | 1012.0 |
| 20260904105802 | 21 | 43 | 1.6 | 1.6 | 0.00 | 0.03 | 0.03 | 99 | 1011.9 |
| 20260904105305 | 21 | 330 | 1.6 | 1.6 | 0.00 | 0.03 | 0.03 | 96 | 1012.1 |
| 20260904104757 | 20 | 321 | 1.6 | 3.2 | 0.00 | 0.03 | 0.03 | 99 | 1011.8 |
| 20260904104253 | 20 | 343 | 0.0 | 1.6 | 0.00 | 0.03 | 0.03 | 99 | 1011.9 |
| 20260904103749 | 20 | 326 | 0.0 | 0.0 | 0.00 | 0.03 | 0.03 | 99 | 1011.6 |
| 20260904103243 | 20 | 326 | 0.0 | 0.0 | 0.00 | 0.03 | 0.03 | 99 | 1011.7 |
| 20260904102739 | 20 | 313 | 0.0 | 0.0 | 0.00 | 0.03 | 0.03 | 98 | 1011.6 |
| 20260904102234 | 20 | 359 | 0.0 | 0.0 | 0.00 | 0.03 | 0.03 | 99 | 1011.8 |
| 20260904101731 | 21 | 14 | 0.0 | 0.0 | 0.00 | 0.03 | 0.03 | 98 | 1011.8 |
| 20260904101226 | 21 | 328 | 3.2 | 3.2 | 0.00 | 0.03 | 0.03 | 97 | 1011.9 |
| 20260904100722 | 20 | 319 | 3.2 | 3.2 | 0.00 | 0.03 | 0.03 | 99 | 1011.8 |
| 20260904100218 | 20 | 354 | 0.0 | 1.6 | 0.00 | 0.03 | 0.03 | 99 | 1011.8 |
| 20260904095717 | 20 | 3 | 0.0 | 0.0 | 0.00 | 0.03 | 0.03 | 99 | 1011.5 |
| 20260904095212 | 20 | 353 | 3.2 | 3.2 | 0.00 | 0.03 | 0.03 | 99 | 1011.6 |
| 20260904094708 | 20 | 341 | 3.2 | 3.2 | 0.00 | 0.03 | 0.03 | 99 | 1011.8 |
| 20260904094203 | 20 | 343 | 1.6 | 3.2 | 0.00 | 0.03 | 0.03 | 99 | 1011.8 |
| 20260904093700 | 20 | 338 | 3.2 | 3.2 | 0.00 | 0.03 | 0.03 | 99 | 1011.7 |
| 20260904093159 | 20 | 353 | 1.6 | 3.2 | 0.00 | 0.03 | 0.03 | 99 | 1011.6 |
| 20260904092655 | 20 | 353 | 0.0 | 0.0 | 0.00 | 0.03 | 0.03 | 99 | 1011.6 |
| 20260904092151 | 20 | 359 | 1.6 | 1.6 | 0.00 | 0.03 | 0.03 | 99 | 1011.3 |
| 20260904091647 | 20 | 352 | 1.6 | 1.6 | 0.00 | 0.03 | 0.03 | 99 | 1011.4 |
| 20260904091147 | 19 | 359 | 1.6 | 3.2 | 0.00 | 0.03 | 0.03 | 99 | 1011.5 |
| 20260904090642 | 18 | 2 | 0.0 | 0.0 | 0.00 | 0.03 | 0.03 | 99 | 1010.8 |
| 20260904090137 | 18 | 2 | 0.0 | 0.0 | 0.00 | 0.03 | 0.03 | 99 | 1010.4 |
| 20260904085637 | 18 | 2 | 0.0 | 0.0 | 0.00 | 0.03 | 0.03 | 99 | 1010.6 |
| 20260904085132 | 18 | 2 | 0.0 | 0.0 | 0.00 | 0.03 | 0.03 | 99 | 1010.4 |
| 20260904084627 | 18 | 2 | 0.0 | 0.0 | 0.00 | 0.03 | 0.03 | 99 | 1010.4 |
| 20260904084124 | 18 | 2 | 0.0 | 0.0 | 0.00 | 0.03 | 0.03 | 99 | 1010.2 |
| 20260904083620 | 18 | 2 | 0.0 | 0.0 | 0.00 | 0.03 | 0.03 | 99 | 1010.4 |
| 20260904083115 | 18 | 2 | 0.0 | 0.0 | 0.00 | 0.03 | 0.03 | 99 | 1010.3 |
| 20260904082610 | 18 | 2 | 0.0 | 0.0 | 0.00 | 0.03 | 0.03 | 99 | 1010.5 |
| 20260904082106 | 18 | 2 | 0.0 | 0.0 | 0.00 | 0.03 | 0.03 | 99 | 1010.6 |
| 20260904081601 | 18 | 2 | 0.0 | 0.0 | 0.00 | 0.03 | 0.03 | 99 | 1010.6 |
| 20260904081056 | 18 | 2 | 0.0 | 0.0 | 0.00 | 0.03 | 0.03 | 99 | 1010.9 |
| 20260904080551 | 18 | 2 | 0.0 | 0.0 | 0.00 | 0.03 | 0.03 | 99 | 1011.1 |
| 20260904080048 | 18 | 2 | 0.0 | 0.0 | 0.00 | 0.03 | 0.03 | 99 | 1011.1 |
| 20260904075543 | 18 | 2 | 0.0 | 0.0 | 0.00 | 0.03 | 0.03 | 99 | 1011.0 |
| 20260904075038 | 18 | 2 | 0.0 | 0.0 | 0.00 | 0.03 | 0.03 | 99 | 1011.1 |
| 20260904074537 | 18 | 3 | 0.0 | 0.0 | 0.00 | 0.03 | 0.03 | 99 | 1011.0 |
| 20260904074032 | 18 | 3 | 0.0 | 0.0 | 0.00 | 0.03 | 0.03 | 99 | 1011.1 |
| 20260904073527 | 18 | 3 | 0.0 | 0.0 | 0.00 | 0.03 | 0.03 | 99 | 1011.2 |
| 20260904073023 | 18 | 2 | 0.0 | 0.0 | 0.00 | 0.03 | 0.03 | 99 | 1011.1 |
| 20260904072519 | 18 | 2 | 0.0 | 0.0 | 0.00 | 0.03 | 0.03 | 99 | 1010.9 |
| 20260904072014 | 18 | 2 | 0.0 | 0.0 | 0.00 | 0.03 | 0.03 | 99 | 1010.6 |
| 20260904071510 | 18 | 1 | 0.0 | 0.0 | 0.00 | 0.03 | 0.03 | 99 | 1010.6 |
| 20260904071004 | 18 | 1 | 0.0 | 0.0 | 0.00 | 0.03 | 0.03 | 99 | 1010.5 |
| 20260904070503 | 18 | 1 | 0.0 | 0.0 | 0.00 | 0.03 | 0.03 | 99 | 1010.6 |
| 20260904065957 | 18 | 1 | 0.0 | 0.0 | 0.00 | 0.03 | 0.03 | 99 | 1010.4 |
| 20260904065453 | 18 | 1 | 0.0 | 0.0 | 0.00 | 0.03 | 0.03 | 99 | 1010.4 |
| 20260904064948 | 18 | 1 | 0.0 | 0.0 | 0.00 | 0.03 | 0.03 | 99 | 1010.5 |
| 20260904064444 | 18 | 1 | 0.0 | 0.0 | 0.00 | 0.03 | 0.03 | 99 | 1010.5 |
| 20260904063939 | 18 | 1 | 0.0 | 0.0 | 0.00 | 0.03 | 0.03 | 99 | 1010.6 |
| 20260904063436 | 18 | 2 | 0.0 | 0.0 | 0.00 | 0.03 | 0.03 | 99 | 1010.9 |
| 20260904062931 | 18 | 2 | 0.0 | 0.0 | 0.00 | 0.03 | 0.03 | 99 | 1010.8 |
| 20260904062427 | 18 | 2 | 0.0 | 0.0 | 0.00 | 0.03 | 0.03 | 99 | 1010.8 |
| 20260904061922 | 18 | 2 | 0.0 | 0.0 | 0.00 | 0.03 | 0.03 | 99 | 1010.5 |
| 20260904061419 | 18 | 2 | 0.0 | 0.0 | 0.00 | 0.03 | 0.03 | 99 | 1010.8 |
| 20260904060915 | 18 | 2 | 0.0 | 0.0 | 0.00 | 0.03 | 0.03 | 99 | 1010.5 |
| 20260904060410 | 19 | 2 | 0.0 | 0.0 | 0.00 | 0.03 | 0.03 | 99 | 1011.1 |
| 20260904055906 | 19 | 2 | 0.0 | 0.0 | 0.00 | 0.03 | 0.03 | 99 | 1010.8 |
| 20260904055401 | 19 | 2 | 0.0 | 0.0 | 0.00 | 0.03 | 0.03 | 99 | 1011.2 |
| 20260904054856 | 19 | 1 | 0.0 | 0.0 | 0.00 | 0.03 | 0.03 | 99 | 1011.3 |
| 20260904054352 | 19 | 1 | 0.0 | 0.0 | 0.00 | 0.03 | 0.03 | 99 | 1011.1 |
| 20260904053848 | 19 | 2 | 0.0 | 0.0 | 0.00 | 0.03 | 0.03 | 99 | 1011.2 |
| 20260904053347 | 19 | 1 | 0.0 | 0.0 | 0.00 | 0.03 | 0.03 | 99 | 1011.3 |
| 20260904052843 | 19 | 2 | 0.0 | 0.0 | 0.00 | 0.03 | 0.03 | 99 | 1011.5 |
| 20260904052339 | 19 | 2 | 0.0 | 0.0 | 0.00 | 0.03 | 0.03 | 99 | 1011.3 |
| 20260904051835 | 20 | 1 | 0.0 | 0.0 | 0.00 | 0.03 | 0.03 | 99 | 1011.5 |
| 20260904051331 | 20 | 2 | 0.0 | 0.0 | 0.00 | 0.03 | 0.03 | 99 | 1011.8 |
| 20260904050830 | 20 | 1 | 0.0 | 0.0 | 0.00 | 0.03 | 0.03 | 99 | 1012.0 |
| 20260904050328 | 20 | 2 | 0.0 | 0.0 | 0.00 | 0.03 | 0.03 | 99 | 1011.9 |
| 20260904045827 | 20 | 1 | 0.0 | 0.0 | 0.00 | 0.03 | 0.03 | 99 | 1012.1 |
| 20260904045322 | 20 | 2 | 0.0 | 0.0 | 0.00 | 0.03 | 0.03 | 99 | 1012.4 |
| 20260904044817 | 20 | 2 | 0.0 | 0.0 | 0.00 | 0.03 | 0.03 | 99 | 1012.4 |
| 20260904044314 | 20 | 354 | 0.0 | 0.0 | 0.00 | 0.03 | 0.03 | 99 | 1012.4 |
| 20260904043809 | 20 | 352 | 0.0 | 0.0 | 0.00 | 0.03 | 0.03 | 99 | 1012.7 |
| 20260904043306 | 20 | 8 | 0.0 | 0.0 | 0.00 | 0.03 | 0.03 | 99 | 1012.3 |
| 20260904042800 | 20 | 5 | 0.0 | 0.0 | 0.00 | 0.03 | 0.03 | 99 | 1012.5 |
| 20260904042257 | 20 | 353 | 0.0 | 0.0 | 0.00 | 0.03 | 0.03 | 99 | 1012.6 |
| 20260904041756 | 20 | 348 | 0.0 | 0.0 | 0.00 | 0.03 | 0.03 | 99 | 1012.5 |
| 20260904041253 | 20 | 349 | 0.0 | 0.0 | 0.13 | 0.03 | 0.03 | 99 | 1012.8 |
| 20260904040748 | 20 | 357 | 0.0 | 0.0 | 0.13 | 0.03 | 0.03 | 99 | 1013.0 |
| 20260904040244 | 20 | 355 | 0.0 | 0.0 | 0.18 | 0.00 | 0.00 | 99 | 1013.4 |
| 20260904035740 | 20 | 353 | 0.0 | 0.0 | 0.30 | 0.79 | 0.79 | 99 | 1013.2 |
| 20260904035235 | 20 | 353 | 0.0 | 0.0 | 0.48 | 0.79 | 0.79 | 99 | 1013.1 |
| 20260904034734 | 20 | 349 | 0.0 | 0.0 | 0.18 | 0.74 | 0.74 | 99 | 1013.2 |
| 20260904034230 | 20 | 30 | 1.6 | 3.2 | 0.13 | 0.71 | 0.71 | 99 | 1013.4 |
| 20260904033725 | 20 | 355 | 0.0 | 1.6 | 0.13 | 0.71 | 0.71 | 99 | 1013.7 |
| 20260904033222 | 20 | 358 | 0.0 | 0.0 | 0.18 | 0.69 | 0.69 | 99 | 1013.9 |
| 20260904032718 | 20 | 223 | 1.6 | 3.2 | 0.36 | 0.69 | 0.69 | 99 | 1014.2 |
| 20260904032217 | 20 | 340 | 1.6 | 3.2 | 1.85 | 0.69 | 0.69 | 99 | 1014.3 |
| 20260904031711 | 20 | 299 | 1.6 | 1.6 | 3.48 | 0.66 | 0.66 | 99 | 1014.2 |
| 20260904031206 | 20 | 359 | 1.6 | 3.2 | 1.80 | 0.36 | 0.36 | 98 | 1015.1 |
| 20260904030702 | 21 | 298 | 3.2 | 3.2 | 0.18 | 0.08 | 0.08 | 95 | 1014.9 |
| 20260904030157 | 20 | 88 | 8.0 | 11.3 | 0.00 | 0.05 | 0.05 | 94 | 1014.6 |
| 20260904025654 | 20 | 3 | 0.0 | 0.0 | 0.00 | 0.05 | 0.05 | 94 | 1015.4 |
| 20260904025148 | 21 | 342 | 6.4 | 6.4 | 0.00 | 0.05 | 0.05 | 93 | 1014.7 |
| 20260904024644 | 21 | 308 | 6.4 | 6.4 | 0.00 | 0.05 | 0.05 | 93 | 1015.5 |
| 20260904024139 | 22 | 315 | 4.8 | 6.4 | 0.00 | 0.05 | 0.05 | 89 | 1014.4 |
| 20260904023635 | 22 | 335 | 3.2 | 4.8 | 0.00 | 0.05 | 0.05 | 86 | 1014.2 |
| 20260904023131 | 22 | 320 | 4.8 | 4.8 | 0.00 | 0.05 | 0.05 | 85 | 1014.5 |
| 20260904022625 | 22 | 308 | 6.4 | 6.4 | 0.00 | 0.05 | 0.05 | 84 | 1014.5 |
| 20260904022122 | 23 | 7 | 3.2 | 4.8 | 0.00 | 0.05 | 0.05 | 82 | 1013.5 |
| 20260904021617 | 25 | 315 | 4.8 | 6.4 | 0.00 | 0.05 | 0.05 | 77 | 1013.7 |
| 20260904021112 | 25 | 342 | 4.8 | 4.8 | 0.00 | 0.05 | 0.05 | 79 | 1014.0 |
| 20260904020608 | 25 | 348 | 0.0 | 0.0 | 0.00 | 0.05 | 0.05 | 86 | 1013.3 |
| 20260904015557 | 25 | 5 | 0.0 | 0.0 | 0.00 | 0.05 | 0.05 | 87 | 1012.9 |
| 20260904015056 | 25 | 348 | 0.0 | 1.6 | 0.00 | 0.05 | 0.05 | 86 | 1013.3 |
| 20260904014550 | 24 | 5 | 0.0 | 0.0 | 0.00 | 0.05 | 0.05 | 95 | 1013.0 |
| 20260904014046 | 24 | 355 | 0.0 | 0.0 | 0.00 | 0.05 | 0.05 | 98 | 1012.6 |
| 20260904013542 | 23 | 359 | 0.0 | 0.0 | 0.00 | 0.05 | 0.05 | 99 | 1012.6 |
| 20260904013038 | 23 | 359 | 0.0 | 0.0 | 0.00 | 0.05 | 0.05 | 99 | 1012.4 |
| 20260904012538 | 23 | 359 | 0.0 | 0.0 | 0.00 | 0.05 | 0.05 | 99 | 1012.1 |
| 20260904012037 | 23 | 359 | 0.0 | 0.0 | 0.00 | 0.05 | 0.05 | 99 | 1012.0 |
| 20260904011532 | 23 | 359 | 0.0 | 0.0 | 0.00 | 0.05 | 0.05 | 99 | 1011.6 |
| 20260904011027 | 24 | 359 | 0.0 | 0.0 | 0.00 | 0.05 | 0.05 | 99 | 1011.7 |
| 20260904010524 | 24 | 359 | 0.0 | 0.0 | 0.00 | 0.05 | 0.05 | 98 | 1011.8 |
| 20260904010019 | 24 | 359 | 0.0 | 0.0 | 0.00 | 0.05 | 0.05 | 98 | 1011.8 |
| 20260904005514 | 24 | 359 | 0.0 | 0.0 | 0.00 | 0.05 | 0.05 | 98 | 1011.8 |
| 20260904005009 | 24 | 359 | 0.0 | 0.0 | 0.00 | 0.05 | 0.05 | 98 | 1011.5 |
| 20260904004504 | 25 | 359 | 0.0 | 0.0 | 0.00 | 0.05 | 0.05 | 98 | 1011.7 |
| 20260904003959 | 25 | 359 | 0.0 | 0.0 | 0.00 | 0.05 | 0.05 | 98 | 1011.7 |
| 20260904003455 | 25 | 359 | 0.0 | 0.0 | 0.00 | 0.05 | 0.05 | 98 | 1011.5 |
| 20260904002950 | 25 | 359 | 0.0 | 0.0 | 0.00 | 0.05 | 0.05 | 98 | 1011.8 |
| 20260904002447 | 25 | 359 | 0.0 | 0.0 | 0.00 | 0.05 | 0.05 | 97 | 1011.6 |
| 20260904001945 | 25 | 359 | 0.0 | 0.0 | 0.00 | 0.05 | 0.05 | 97 | 1011.7 |
| 20260904001441 | 25 | 359 | 0.0 | 0.0 | 0.00 | 0.05 | 0.05 | 97 | 1011.5 |
| 20260904000941 | 25 | 359 | 0.0 | 0.0 | 0.00 | 0.05 | 0.05 | 96 | 1011.6 |
| 20260904000440 | 25 | 359 | 0.0 | 0.0 | 0.00 | 0.05 | 0.05 | 96 | 1011.7 |
| 20260903235936 | 25 | 359 | 0.0 | 0.0 | 0.00 | 0.05 | 0.05 | 96 | 1011.8 |
| 20260903235432 | 26 | 359 | 0.0 | 0.0 | 0.00 | 0.05 | 0.05 | 96 | 1011.9 |
| 20260903234926 | 26 | 359 | 0.0 | 0.0 | 0.00 | 0.05 | 0.05 | 95 | 1012.3 |
| 20260903234422 | 26 | 359 | 0.0 | 0.0 | 0.00 | 0.05 | 0.05 | 94 | 1012.4 |
| 20260903233918 | 26 | 359 | 0.0 | 0.0 | 0.00 | 0.05 | 0.05 | 94 | 1012.2 |
| 20260903233414 | 26 | 359 | 0.0 | 0.0 | 0.00 | 0.05 | 0.05 | 93 | 1012.1 |
| 20260903232913 | 26 | 359 | 0.0 | 0.0 | 0.00 | 0.05 | 0.05 | 92 | 1012.3 |
| 20260903232408 | 27 | 359 | 0.0 | 0.0 | 0.00 | 0.05 | 0.05 | 91 | 1012.2 |
| 20260903231908 | 27 | 359 | 0.0 | 0.0 | 0.00 | 0.05 | 0.05 | 91 | 1012.2 |
| 20260903231403 | 27 | 359 | 0.0 | 0.0 | 0.00 | 0.05 | 0.05 | 90 | 1012.1 |
| 20260903230858 | 27 | 359 | 0.0 | 0.0 | 0.00 | 0.05 | 0.05 | 88 | 1012.0 |
| 20260903230353 | 27 | 359 | 0.0 | 0.0 | 0.00 | 0.05 | 0.05 | 87 | 1011.5 |
| 20260903225850 | 27 | 359 | 0.0 | 0.0 | 0.00 | 0.05 | 0.05 | 87 | 1011.3 |
| 20260903225345 | 28 | 359 | 0.0 | 0.0 | 0.00 | 0.05 | 0.05 | 86 | 1011.3 |
| 20260903224842 | 28 | 359 | 0.0 | 0.0 | 0.00 | 0.05 | 0.05 | 85 | 1011.2 |
| 20260903224337 | 28 | 359 | 0.0 | 0.0 | 0.00 | 0.05 | 0.05 | 84 | 1011.4 |
| 20260903223833 | 28 | 356 | 0.0 | 0.0 | 0.00 | 0.05 | 0.05 | 84 | 1011.4 |
| 20260903223326 | 28 | 355 | 0.0 | 0.0 | 0.00 | 0.05 | 0.05 | 83 | 1011.3 |
| 20260903222821 | 29 | 356 | 0.0 | 0.0 | 0.00 | 0.05 | 0.05 | 81 | 1011.2 |
| 20260903222320 | 30 | 359 | 0.0 | 0.0 | 0.00 | 0.05 | 0.05 | 78 | 1011.4 |
| 20260903221814 | 30 | 4 | 0.0 | 0.0 | 0.00 | 0.05 | 0.05 | 79 | 1011.4 |
| 20260903221314 | 30 | 352 | 0.0 | 0.0 | 0.00 | 0.05 | 0.05 | 79 | 1011.1 |
| 20260903220812 | 30 | 3 | 0.0 | 0.0 | 0.00 | 0.05 | 0.05 | 79 | 1011.1 |
| 20260903220306 | 30 | 348 | 0.0 | 0.0 | 0.00 | 0.05 | 0.05 | 78 | 1011.2 |
| 20260903215759 | 30 | 12 | 0.0 | 0.0 | 0.00 | 0.05 | 0.05 | 75 | 1010.9 |
| 20260903215256 | 30 | 355 | 0.0 | 0.0 | 0.00 | 0.05 | 0.05 | 77 | 1011.0 |
| 20260903214753 | 30 | 258 | 1.6 | 3.2 | 0.00 | 0.05 | 0.05 | 73 | 1010.6 |
| 20260903214249 | 30 | 352 | 1.6 | 1.6 | 0.00 | 0.05 | 0.05 | 76 | 1010.4 |
| 20260903213743 | 30 | 3 | 1.6 | 1.6 | 0.00 | 0.05 | 0.05 | 74 | 1010.8 |
| 20260903213239 | 31 | 0 | 0.0 | 1.6 | 0.00 | 0.05 | 0.05 | 72 | 1010.8 |
| 20260903212730 | 31 | 352 | 0.0 | 0.0 | 0.00 | 0.05 | 0.05 | 70 | 1010.9 |
| 20260903212226 | 31 | 358 | 1.6 | 1.6 | 0.00 | 0.05 | 0.05 | 71 | 1010.9 |
| 20260903211719 | 31 | 331 | 0.0 | 1.6 | 0.00 | 0.05 | 0.05 | 70 | 1010.9 |
| 20260903211216 | 31 | 5 | 0.0 | 0.0 | 0.00 | 0.05 | 0.05 | 70 | 1010.8 |
| 20260903210711 | 31 | 34 | 1.6 | 1.6 | 0.00 | 0.05 | 0.05 | 73 | 1011.2 |
| 20260903210207 | 31 | 7 | 1.6 | 3.2 | 0.00 | 0.05 | 0.05 | 70 | 1011.2 |
| 20260903205701 | 31 | 3 | 0.0 | 0.0 | 0.00 | 0.05 | 0.05 | 70 | 1011.2 |
| 20260903205200 | 31 | 3 | 0.0 | 1.6 | 0.00 | 0.05 | 0.05 | 73 | 1011.2 |
| 20260903204656 | 31 | 299 | 1.6 | 1.6 | 0.00 | 0.05 | 0.05 | 72 | 1011.2 |
| 20260903204152 | 31 | 32 | 1.6 | 3.2 | 0.00 | 0.05 | 0.05 | 71 | 1011.2 |
| 20260903203647 | 31 | 22 | 0.0 | 1.6 | 0.00 | 0.05 | 0.05 | 72 | 1011.1 |
| 20260903203142 | 31 | 332 | 1.6 | 1.6 | 0.00 | 0.05 | 0.05 | 71 | 1011.1 |
| 20260903202637 | 32 | 352 | 0.0 | 0.0 | 0.00 | 0.05 | 0.05 | 68 | 1011.2 |
| 20260903202132 | 32 | 346 | 0.0 | 0.0 | 0.00 | 0.05 | 0.05 | 74 | 1011.3 |
| 20260903201631 | 32 | 332 | 0.0 | 1.6 | 0.00 | 0.05 | 0.05 | 70 | 1011.4 |
| 20260903201126 | 32 | 316 | 1.6 | 1.6 | 0.00 | 0.05 | 0.05 | 70 | 1011.7 |
| 20260903200621 | 32 | 352 | 1.6 | 1.6 | 0.00 | 0.05 | 0.05 | 67 | 1011.4 |
| 20260903200116 | 32 | 335 | 1.6 | 1.6 | 0.00 | 0.05 | 0.05 | 66 | 1011.7 |
| 20260903195612 | 32 | 353 | 0.0 | 1.6 | 0.00 | 0.05 | 0.05 | 66 | 1011.8 |
| 20260903195108 | 32 | 350 | 0.0 | 0.0 | 0.00 | 0.05 | 0.05 | 70 | 1011.8 |
| 20260903194603 | 32 | 342 | 0.0 | 0.0 | 0.00 | 0.05 | 0.05 | 66 | 1012.0 |
| 20260903194102 | 31 | 338 | 4.8 | 4.8 | 0.00 | 0.05 | 0.05 | 67 | 1011.9 |
| 20260903193559 | 32 | 344 | 1.6 | 1.6 | 0.00 | 0.05 | 0.05 | 67 | 1012.0 |
| 20260903193054 | 32 | 322 | 3.2 | 3.2 | 0.00 | 0.05 | 0.05 | 69 | 1012.2 |
| 20260903192550 | 32 | 346 | 0.0 | 0.0 | 0.00 | 0.05 | 0.05 | 70 | 1012.1 |
| 20260903192046 | 31 | 338 | 0.0 | 0.0 | 0.00 | 0.05 | 0.05 | 71 | 1012.3 |
| 20260903191536 | 31 | 314 | 0.0 | 0.0 | 0.00 | 0.05 | 0.05 | 72 | 1012.4 |
| 20260903191031 | 31 | 320 | 0.0 | 1.6 | 0.00 | 0.05 | 0.05 | 69 | 1012.5 |
| 20260903190530 | 31 | 344 | 1.6 | 1.6 | 0.00 | 0.05 | 0.05 | 71 | 1012.6 |
| 20260903190030 | 31 | 1 | 0.0 | 0.0 | 0.00 | 0.05 | 0.05 | 71 | 1012.5 |
| 20260903185520 | 30 | 327 | 1.6 | 1.6 | 0.00 | 0.05 | 0.05 | 73 | 1012.7 |
| 20260903185015 | 31 | 71 | 3.2 | 4.8 | 0.00 | 0.05 | 0.05 | 68 | 1013.0 |
| 20260903184511 | 31 | 345 | 1.6 | 1.6 | 0.00 | 0.05 | 0.05 | 68 | 1012.8 |
| 20260903184005 | 31 | 281 | 3.2 | 3.2 | 0.00 | 0.05 | 0.05 | 72 | 1013.0 |
| 20260903183500 | 31 | 336 | 1.6 | 1.6 | 0.00 | 0.05 | 0.05 | 68 | 1013.0 |
| 20260903182959 | 31 | 335 | 1.6 | 1.6 | 0.00 | 0.05 | 0.05 | 69 | 1012.8 |
| 20260903182458 | 30 | 357 | 0.0 | 0.0 | 0.00 | 0.05 | 0.05 | 70 | 1013.1 |
| 20260903181954 | 30 | 351 | 1.6 | 3.2 | 0.00 | 0.05 | 0.05 | 71 | 1013.1 |
| 20260903181447 | 30 | 42 | 3.2 | 3.2 | 0.00 | 0.05 | 0.05 | 69 | 1013.1 |
| 20260903180942 | 30 | 326 | 1.6 | 1.6 | 0.00 | 0.05 | 0.05 | 75 | 1013.2 |
| 20260903180437 | 29 | 8 | 3.2 | 3.2 | 0.00 | 0.05 | 0.05 | 74 | 1013.1 |
| 20260903175936 | 28 | 33 | 0.0 | 1.6 | 0.00 | 0.05 | 0.05 | 75 | 1013.2 |
| 20260903175431 | 29 | 331 | 3.2 | 3.2 | 0.00 | 0.05 | 0.05 | 75 | 1013.4 |
| 20260903174924 | 30 | 88 | 6.4 | 6.4 | 0.00 | 0.05 | 0.05 | 73 | 1013.3 |
| 20260903174420 | 29 | 34 | 3.2 | 3.2 | 0.00 | 0.05 | 0.05 | 75 | 1013.5 |
| 20260903173915 | 28 | 32 | 0.0 | 1.6 | 0.00 | 0.05 | 0.05 | 75 | 1014.0 |
| 20260903173414 | 28 | 353 | 1.6 | 3.2 | 0.00 | 0.05 | 0.05 | 77 | 1014.1 |
| 20260903172911 | 28 | 20 | 1.6 | 1.6 | 0.00 | 0.05 | 0.05 | 77 | 1014.3 |
| 20260903172411 | 28 | 27 | 1.6 | 1.6 | 0.00 | 0.05 | 0.05 | 77 | 1014.1 |
| 20260903171906 | 27 | 339 | 0.0 | 1.6 | 0.00 | 0.05 | 0.05 | 81 | 1014.2 |
| 20260903171401 | 26 | 352 | 0.0 | 0.0 | 0.00 | 0.05 | 0.05 | 80 | 1014.6 |
| 20260903170900 | 27 | 340 | 0.0 | 1.6 | 0.00 | 0.05 | 0.05 | 86 | 1014.4 |
| 20260903170355 | 27 | 0 | 0.0 | 1.6 | 0.00 | 0.05 | 0.05 | 79 | 1014.6 |
| 20260903165854 | 27 | 18 | 0.0 | 0.0 | 0.00 | 0.05 | 0.05 | 86 | 1014.5 |
| 20260903165349 | 26 | 349 | 1.6 | 1.6 | 0.00 | 0.05 | 0.05 | 84 | 1014.8 |
| 20260903164844 | 25 | 354 | 0.0 | 0.0 | 0.00 | 0.05 | 0.05 | 90 | 1014.9 |
| 20260903164339 | 24 | 353 | 0.0 | 0.0 | 0.00 | 0.05 | 0.05 | 90 | 1015.0 |
| 20260903163838 | 25 | 347 | 0.0 | 0.0 | 0.00 | 0.05 | 0.05 | 88 | 1015.1 |
| 20260903163335 | 25 | 346 | 0.0 | 0.0 | 0.00 | 0.05 | 0.05 | 85 | 1015.2 |
| 20260903162831 | 25 | 348 | 0.0 | 0.0 | 0.00 | 0.05 | 0.05 | 86 | 1015.2 |
| 20260903162327 | 26 | 341 | 0.0 | 1.6 | 0.00 | 0.05 | 0.05 | 85 | 1015.3 |
| 20260903161822 | 26 | 40 | 1.6 | 1.6 | 0.00 | 0.05 | 0.05 | 88 | 1015.4 |
| 20260903161318 | 25 | 339 | 0.0 | 0.0 | 0.00 | 0.05 | 0.05 | 90 | 1015.5 |
| 20260903160814 | 25 | 348 | 0.0 | 0.0 | 0.00 | 0.05 | 0.05 | 89 | 1015.4 |